STARLINK-2566 (48287 NORAD) Tracking and Keplerian Element Data

This shows tracking and keplerian element data for the satellite.

Feedback or suggestion? Click here.




ElementValue
Catalog48287
NameSTARLINK-2566
Epoch Orbit197
Epoch Day173.83334491
Epoch Year2021
RAAN257.2655
Inclination53.0515
Eccentricity0.0001698
Argument of Perigee40.5754
Mean Anonmoly334.6867
Mean Motion15.72802407
Decay Rate0.00669942
L11 48287U 21036M 21173.83334491 .00669942 00000-0 44820-2 0 9996
L22 48287 53.0515 257.2655 0001698 40.5754 334.6867 15.72802407 1971

Live tracking and technical data element details for STARLINK-2566 (NORAD 48287). STARLINK-2566 can be tracked NOW for your location showing map with azimuth and elevation plus other details from your city location.

Track the satellite on the map from your city or location and see movement details for azimuth, elevation, latitude, longitude, range, height, and movement on the map or in text.







IsCatalogInMostPopularTable: catalog: 48287, numindb: 19
Update: records affected: 1



GetName: 48287 STARLINK-2566

Hit Count: updated at: Thu, 24 Jun 2021 02:45:38 GMT